[[{"header":{"parameterUnit":"m.s-1","parameterCategory":2,"la1":30.2991,"la2":30.254,"lo1":-89.0895,"lo2":-89.0444,"dy":0.0017,"dx":0.0017,"nx":28,"ny":28,"refTime":"2025-04-01T09:00:00:Z","depth":"0","parameterNumber":2,"parameterNumberName":"U-component_of_CURRENTS"},"data":[0,0,0,0,0,0,0,0,0,0,0,0,0,0,0,0,0,0,0,0,0,0,0,0,0,0,0,0,0,0,0,0,0,0,0,0,0,0,0,0,0,0,0,0,0,0,0,0,0,0,0,0,0,0,0,0,0,0,0.2675,0.2675,0,0.2679,0.2679,0.2678,0.2659,0.2658,0.2658,0.2658,0.2627,0.2627,0.2627,0,0,0,0,0,0,0,0,0,0,0,0,0,0.2646,0.2646,0.2675,0.2675,0.2675,0.2679,0.2679,0.2678,0.2659,0.2658,0.2658,0.2657,0.2627,0.2627,0.2626,0,0,0,0,0,0,0,0,0,0,0,0,0,0.2653,0.2646,0.2675,0.2667,0.2666,0.2679,0.2679,0.2678,0.2659,0.2658,0.2658,0.2657,0.2628,0.2627,0.2626,0.2635,0,0,0.2624,0.2624,0,0,0,0,0,0,0,0,0.2653,0.2654,0.2668,0.2668,0.2667,0.2669,0.2657,0.2663,0.2659,0.266,0.2658,0.2657,0.264,0.2638,0.2638,0.2633,0.2632,0.2624,0.2624,0.2624,0.2624,0,0,0,0,0,0,0,0.2652,0.2654,0.2674,0.2668,0.2668,0.2662,0.2662,0.2658,0.2651,0.266,0.2659,0.2662,0.2639,0.2639,0.2637,0.2632,0.2624,0.2624,0.2623,0.2623,0.2664,0.2665,0,0,0,0,0,0,0.2656,0.2653,0.2674,0.2675,0.266,0.2663,0.2663,0.2668,0.2652,0.265,0.2663,0.2661,0.264,0.2638,0.2636,0.2661,0.2624,0.2623,0.2623,0.2662,0.2664,0.2665,0,0,0,0,0,0,0.2656,0.2658,0.2674,0.2665,0.2667,0.2665,0.2669,0.2668,0.2672,0.2655,0.2652,0.2669,0.264,0.2637,0.2644,0.2659,0.2623,0.2622,0.266,0.2663,0.2665,0.2701,0,0,0,0,0,0,0.2655,0.2658,0.2662,0.2666,0.2668,0.2688,0.267,0.2669,0.2676,0.2674,0.2659,0.2655,0.2639,0.2645,0.2643,0.2658,0.2622,0.2659,0.2661,0.2664,0.2698,0.2705,0.271,0,0,0,0,0,0.2654,0.2661,0.2662,0.2665,0.2674,0.2689,0.2689,0.2684,0.2677,0.2684,0.2677,0.2656,0.2661,0.2646,0.2643,0.2658,0.2657,0.2661,0.2664,0.2696,0.2703,0.271,0,0,0,0,0,0,0.265,0.266,0.2661,0.2671,0.2683,0.2686,0.2692,0.2691,0.2692,0.269,0.267,0.2667,0.2683,0.267,0.2653,0.2681,0.2658,0.2661,0.2683,0.269,0.2696,0.2701,0.2621,0,0,0,0,0,0.2653,0.2661,0.2673,0.2682,0.269,0.2694,0.2699,0.27,0.2702,0.2701,0.2692,0.2689,0.2696,0.2691,0.2695,0.2703,0.2711,0.2714,0.272,0.2725,0.273,0.2763,0.2772,0.2676,0.2676,0.2676,0,0,0.2653,0.2661,0.2664,0.2682,0.2689,0.2703,0.2695,0.271,0.272,0.2698,0.2708,0.271,0.2706,0.272,0.2726,0.2708,0.276,0.2729,0.2733,0.2736,0.2767,0.2777,0.2785,0.2678,0.2678,0.2678,0,0,0.2657,0.2668,0.2675,0.2689,0.2708,0.2715,0.2723,0.2734,0.2738,0.2752,0.2746,0.2762,0.2757,0.2763,0.2764,0.2806,0.2795,0.2806,0.2828,0.286,0.2868,0.2875,0.2907,0.2916,0.2801,0.2801,0.2801,0,0.2657,0.2667,0.268,0.2694,0.2706,0.2722,0.2735,0.2748,0.2759,0.2771,0.2759,0.2786,0.278,0.2808,0.2821,0.2818,0.2833,0.2798,0.2867,0.2874,0.2881,0.2911,0.2921,0.2803,0.2803,0.2802,0.2802,0,0.2665,0.2677,0.2686,0.2707,0.2724,0.2741,0.2764,0.2783,0.2791,0.2802,0.2835,0.2838,0.2852,0.2857,0.2847,0.2894,0.2891,0.2876,0.2846,0.2892,0.2922,0.2932,0.2806,0.2805,0.2805,0.2804,0,0,0.2651,0.2683,0.2685,0.2693,0.2733,0.2741,0.2778,0.281,0.2832,0.2851,0.288,0.2901,0.291,0.2913,0.2913,0.2936,0.2997,0.2924,0.2925,0.295,0.3073,0.3075,0.3086,0.2992,0.2994,0.2995,0.3078,0,0.2652,0.2668,0.2692,0.2711,0.2721,0.2758,0.2787,0.2822,0.2851,0.2885,0.2911,0.2938,0.2929,0.2939,0.2967,0.2993,0.3023,0.2976,0.3029,0.3031,0.3023,0.3098,0.3055,0.3126,0.3087,0.3089,0.309,0,0.2647,0.2659,0.2673,0.2707,0.2716,0.2733,0.2784,0.2815,0.2881,0.2906,0.295,0.2972,0.3025,0.3002,0.3079,0.3049,0.3068,0.3083,0.3086,0.3081,0.3052,0.3073,0.3145,0.3124,0.3105,0.3103,0.3102,0,0.261,0.2643,0.2649,0.266,0.2705,0.2721,0.2752,0.2816,0.285,0.2923,0.2959,0.302,0.3057,0.3095,0.3142,0.3112,0.3224,0.3183,0.3205,0.3205,0.3177,0.3171,0.3229,0.3238,0.3238,0.3238,0.3238,0,0.2594,0.2596,0.2628,0.2627,0.2643,0.269,0.2721,0.277,0.2844,0.2889,0.2964,0.3016,0.3083,0.3154,0.3174,0.324,0.3256,0.3233,0.3236,0.319,0.3185,0.3169,0.3139,0.3241,0.324,0.324,0.3239,0,0.2546,0.2569,0.2573,0.261,0.2622,0.2631,0.2693,0.2721,0.2807,0.2873,0.29,0.3031,0.3135,0.3207,0.3286,0.3289,0.3266,0.3351,0.3297,0.3292,0.3267,0.3239,0.3078,0.2987,0.3383,0.3384,0.3384,0,0.252,0.2518,0.2543,0.2545,0.2557,0.2581,0.2602,0.2685,0.2729,0.2876,0.291,0.3049,0.3142,0.3293,0.3343,0.3411,0.3295,0.3386,0.3316,0.3286,0.3258,0.304,0.2959,0.3297,0.3297,0.3296,0.3296,0,0.2475,0.2484,0.2488,0.2491,0.25,0.251,0.2554,0.2582,0.2691,0.2765,0.2885,0.2978,0.3171,0.3258,0.3375,0.3395,0.3248,0.3383,0.3368,0.322,0.2969,0.2877,0.3221,0.3295,0.3295,0.3295,0.3295,0.3295,0.2442,0.243,0.2437,0.2431,0.2437,0.2432,0.2418,0.2488,0.2544,0.2641,0.2791,0.2912,0.3149,0.3325,0.3327,0.3365,0.3233,0.3311,0.329,0.3077,0.2952,0.3299,0.3361,0.3362,0.3362,0.3363,0.3363,0,0.2397,0.2386,0.2379,0.2354,0.2322,0.2355,0.2376,0.2355,0.2385,0.2542,0.264,0.2884,0.3049,0.3213,0.3364,0.3299,0.3091,0.3241,0.2954,0.2887,0.325,0.3216,0.3231,0.3231,0.3231,0.3231,0.3231,0.3231,0.2375,0.2344,0.233,0.2248,0.2226,0.2152,0.2144,0.214,0.2224,0.2335,0.2472,0.2628,0.2978,0.3286,0.334,0.3263,0.3002,0.2882,0.2817,0.3158,0.3162,0.3166,0.313,0.3126,0.3126,0.2333,0.2328,0.2324]},{"header":{"parameterUnit":"m.s-1","parameterCategory":2,"la1":30.2991,"la2":30.254,"lo1":-89.0895,"lo2":-89.0444,"dy":0.0017,"dx":0.0017,"nx":28,"ny":28,"refTime":"2025-04-01T09:00:00:Z","depth":"0","parameterNumber":3,"parameterNumberName":"V-component_of_CURRENTS"},"data":[0,0,0,0,0,0,0,0,0,0,0,0,0,0,0,0,0,0,0,0,0,0,0,0,0,0,0,0,0,0,0,0,0,0,0,0,0,0,0,0,0,0,0,0,0,0,0,0,0,0,0,0,0,0,0,0,0,0,0.0137,0.0136,0,0.0065,0.0064,0.0063,0.0019,0.0019,0.0018,0.0018,-0.0075,-0.0077,-0.0079,0,0,0,0,0,0,0,0,0,0,0,0,0,0.0192,0.0191,0.0137,0.0136,0.0135,0.0065,0.0064,0.0063,0.0019,0.0019,0.0018,0.0018,-0.0074,-0.0077,-0.008,0,0,0,0,0,0,0,0,0,0,0,0,0,0.0147,0.0191,0.0137,0.0106,0.0103,0.0065,0.0064,0.0062,0.0019,0.0019,0.0018,0.0018,-0.0073,-0.0077,-0.008,-0.01,0,0,-0.0091,-0.0093,0,0,0,0,0,0,0,0,0.015,0.0145,0.0111,0.0108,0.0104,0.0052,0.0049,0.0008,0.0019,0.0049,0.0018,0.0018,-0.0033,-0.004,-0.0055,-0.0104,-0.0108,-0.0091,-0.0094,-0.0095,-0.0096,0,0,0,0,0,0,0,0.0153,0.0148,0.0107,0.0111,0.0106,0.0081,0.0074,0.0041,0.0008,0.0046,0.0043,0.0038,-0.0036,-0.0052,-0.0058,-0.0109,-0.0091,-0.0094,-0.0097,-0.0098,-0.0172,-0.0172,0,0,0,0,0,0,0.0168,0.0151,0.0109,0.0105,0.0129,0.008,0.0073,0.0068,0.0009,0.0,0.0038,0.0036,-0.0045,-0.0054,-0.0061,-0.0068,-0.0095,-0.0098,-0.0101,-0.0172,-0.0172,-0.0172,0,0,0,0,0,0,0.0169,0.0165,0.0112,0.0127,0.0119,0.008,0.0074,0.0066,0.0054,0.0003,-0.0006,0.0034,-0.0046,-0.0056,-0.0083,-0.0073,-0.01,-0.0103,-0.0172,-0.0172,-0.0172,-0.0095,0,0,0,0,0,0,0.0171,0.0166,0.0168,0.0129,0.0119,0.0098,0.0074,0.0065,0.0051,0.0048,-0.0004,-0.0013,-0.0047,-0.0077,-0.0087,-0.0078,-0.0106,-0.0173,-0.0172,-0.0172,-0.0098,-0.0092,-0.0087,0,0,0,0,0,0.0173,0.0179,0.0168,0.0163,0.0123,0.0099,0.0092,0.0062,0.0051,0.0049,0.0016,-0.0011,-0.0082,-0.008,-0.0091,-0.0083,-0.0173,-0.0172,-0.0172,-0.01,-0.0093,-0.0087,0,0,0,0,0,0,0.0205,0.0174,0.0161,0.0158,0.0134,0.0092,0.0089,0.0068,0.004,0.0039,-0.001,-0.0021,-0.0041,-0.0074,-0.0071,-0.0105,-0.0132,-0.0133,-0.0073,-0.0067,-0.0062,-0.004,-0.0109,0,0,0,0,0,0.0214,0.0211,0.0176,0.0175,0.0166,0.0129,0.0117,0.0098,0.0067,0.0054,0.0019,-0.0018,-0.0049,-0.0066,-0.01,-0.0118,-0.0147,-0.0121,-0.0116,-0.0111,-0.0101,-0.0137,-0.0134,-0.017,-0.017,-0.017,0,0,0.0225,0.0209,0.0207,0.0182,0.0162,0.0159,0.0121,0.011,0.0108,0.0049,0.0038,-0.0002,-0.0051,-0.0069,-0.0081,-0.0094,-0.0116,-0.011,-0.0106,-0.0099,-0.0137,-0.0133,-0.013,-0.017,-0.017,-0.017,0,0,0.0253,0.0235,0.0244,0.0229,0.0206,0.0184,0.0185,0.0149,0.0134,0.0114,0.0075,0.0046,-0.0006,-0.0033,-0.0056,-0.0043,-0.0087,-0.0057,-0.0012,-0.0047,-0.0044,-0.0041,-0.0068,-0.0069,-0.0053,-0.0053,-0.0053,0,0.0271,0.0275,0.0243,0.0249,0.0246,0.0202,0.0215,0.0192,0.0152,0.0146,0.0122,0.0055,0.0013,-0.0006,-0.0002,-0.0029,-0.0055,-0.0029,-0.0038,-0.0037,-0.0036,-0.0064,-0.0065,-0.0049,-0.005,-0.005,-0.0051,0,0.0304,0.0309,0.0314,0.031,0.0302,0.0304,0.0274,0.0265,0.024,0.0214,0.0187,0.0127,0.009,0.0069,0.0036,0.0025,0.0003,-0.0026,-0.0049,-0.0027,-0.0058,-0.0062,-0.0044,-0.0045,-0.0046,-0.0047,0,0,0.0344,0.034,0.0342,0.0355,0.0336,0.0336,0.0338,0.0327,0.0335,0.0284,0.0286,0.0223,0.0188,0.0161,0.0113,0.008,0.0063,0.0037,0.0033,0.002,-0.0009,-0.0013,-0.0018,0.0031,0.0031,0.0031,-0.0031,0,0.0383,0.0413,0.0398,0.0431,0.0446,0.0416,0.0425,0.0409,0.0382,0.0372,0.0306,0.0284,0.0223,0.0208,0.0167,0.009,0.0057,0.0082,-0.0037,-0.004,-0.0039,-0.0021,0.0027,-0.0022,-0.0034,-0.0035,-0.0035,0,0.0425,0.044,0.0477,0.05,0.0505,0.0514,0.0527,0.0529,0.0499,0.0476,0.0437,0.0385,0.0335,0.0276,0.0162,0.0181,0.0097,0.0031,0.0027,-0.0005,-0.005,-0.0049,-0.0028,-0.0151,-0.0041,-0.004,-0.004,0,0.0474,0.0501,0.0535,0.0539,0.0551,0.0566,0.0574,0.0561,0.058,0.0542,0.0546,0.0467,0.0438,0.0322,0.0192,0.0175,0.0064,0.0021,-0.0063,-0.0065,-0.0061,-0.0061,-0.0163,-0.0061,-0.0061,-0.006,-0.006,0,0.0524,0.0553,0.056,0.0577,0.0629,0.0618,0.0663,0.0656,0.0661,0.0694,0.0605,0.0615,0.0448,0.0367,0.0227,0.0084,0.0089,-0.0046,-0.0079,-0.0033,-0.003,-0.0167,-0.0242,-0.0063,-0.0062,-0.0062,-0.0061,0,0.057,0.0572,0.0616,0.0638,0.0651,0.0686,0.0731,0.0767,0.0755,0.0795,0.0792,0.0731,0.0629,0.046,0.0282,0.0146,-0.0079,-0.0059,0.0012,-0.001,-0.0206,-0.0277,-0.0427,-0.0529,-0.0161,-0.0162,-0.0162,0,0.0596,0.0621,0.0662,0.0695,0.0705,0.0752,0.0794,0.0808,0.0856,0.0874,0.091,0.0836,0.0811,0.0552,0.0307,0.0073,-0.0082,-0.0061,-0.0089,-0.0201,-0.0305,-0.0369,-0.0449,-0.0056,-0.0055,-0.0055,-0.0054,0,0.0648,0.0657,0.069,0.0756,0.0803,0.0864,0.0925,0.0983,0.1011,0.1058,0.1113,0.1103,0.0876,0.0692,0.0366,0.0179,-0.0146,-0.006,-0.0196,-0.0242,-0.0297,-0.0414,-0.0033,-0.005,-0.0051,-0.0051,-0.0051,-0.0051,0.0687,0.0719,0.076,0.0825,0.0885,0.0968,0.1031,0.1115,0.1213,0.1309,0.129,0.1338,0.1062,0.0644,0.0349,-0.0095,-0.0136,-0.0216,-0.0296,-0.0353,-0.0441,-0.0046,-0.0089,-0.009,-0.009,-0.0091,-0.0091,0,0.0736,0.0768,0.083,0.0903,0.0975,0.0998,0.1116,0.1194,0.1327,0.1462,0.153,0.1514,0.1134,0.0714,0.0135,-0.0226,-0.0414,-0.0434,-0.0511,-0.059,-0.0242,-0.0227,-0.0276,-0.0276,-0.0276,-0.0276,-0.0276,-0.0276,0.0763,0.0823,0.0848,0.0963,0.1019,0.1122,0.1194,0.1324,0.1458,0.167,0.18,0.1874,0.1678,0.0547,-0.0224,-0.0435,-0.0719,-0.0764,-0.095,-0.0688,-0.0673,-0.066,-0.0663,-0.0803,-0.0804,-0.1254,-0.1258,-0.1261]}],[{"header":{"parameterUnit":"m.s-1","parameterCategory":2,"la1":30.2991,"la2":30.254,"lo1":-89.0895,"lo2":-89.0444,"dy":0.0017,"dx":0.0017,"nx":28,"ny":28,"refTime":"2025-04-01T09:00:00:Z","depth":"2","parameterNumber":2,"parameterNumberName":"U-component_of_CURRENTS"},"data":[0,0,0,0,0,0,0,0,0,0,0,0,0,0,0,0,0,0,0,0,0,0,0,0,0,0,0,0,0,0,0,0,0,0,0,0,0,0,0,0,0,0,0,0,0,0,0,0,0,0,0,0,0,0,0,0,0,0,0.267,0.267,0,0.2675,0.2675,0.2675,0.2658,0.2657,0.2657,0.2657,0.263,0.263,0.263,0,0,0,0,0,0,0,0,0,0,0,0,0,0.264,0.264,0.267,0.267,0.267,0.2675,0.2675,0.2675,0.2658,0.2657,0.2657,0.2656,0.2631,0.263,0.263,0,0,0,0,0,0,0,0,0,0,0,0,0,0.2648,0.2641,0.267,0.2663,0.2663,0.2675,0.2675,0.2675,0.2658,0.2657,0.2657,0.2656,0.2631,0.263,0.263,0.2637,0,0,0.2628,0.2628,0,0,0,0,0,0,0,0,0.2648,0.2649,0.2664,0.2664,0.2663,0.2667,0.2655,0.2661,0.2658,0.2658,0.2657,0.2656,0.2641,0.264,0.264,0.2636,0.2635,0.2628,0.2628,0.2627,0.2627,0,0,0,0,0,0,0,0.2647,0.2649,0.267,0.2664,0.2664,0.2659,0.2659,0.2656,0.2651,0.2658,0.2657,0.2661,0.264,0.2641,0.2639,0.2635,0.2628,0.2627,0.2627,0.2627,0.2669,0.267,0,0,0,0,0,0,0.2651,0.2648,0.267,0.267,0.2656,0.266,0.266,0.2665,0.2651,0.265,0.2661,0.266,0.2642,0.264,0.2638,0.2665,0.2627,0.2627,0.2627,0.2668,0.2669,0.2671,0,0,0,0,0,0,0.265,0.2653,0.267,0.2661,0.2663,0.2661,0.2666,0.2665,0.267,0.2654,0.2652,0.2668,0.2641,0.2639,0.2647,0.2663,0.2627,0.2626,0.2666,0.2668,0.267,0.2707,0,0,0,0,0,0,0.2649,0.2653,0.2657,0.2661,0.2663,0.2684,0.2667,0.2666,0.2674,0.2672,0.2659,0.2656,0.2641,0.2648,0.2647,0.2662,0.2626,0.2664,0.2667,0.2669,0.2704,0.271,0.2715,0,0,0,0,0,0.2648,0.2656,0.2657,0.266,0.267,0.2684,0.2685,0.2681,0.2675,0.2682,0.2677,0.2657,0.2664,0.2649,0.2647,0.2662,0.2663,0.2666,0.2669,0.2701,0.2709,0.2715,0,0,0,0,0,0,0.2645,0.2655,0.2657,0.2667,0.2679,0.2682,0.2689,0.2688,0.269,0.269,0.2671,0.2668,0.2685,0.2673,0.2656,0.2685,0.2662,0.2665,0.2687,0.2694,0.27,0.2704,0.2625,0,0,0,0,0,0.2648,0.2656,0.2668,0.2677,0.2685,0.269,0.2695,0.2697,0.27,0.27,0.2692,0.269,0.2698,0.2694,0.2698,0.2708,0.2715,0.272,0.2725,0.273,0.2735,0.2767,0.2776,0.2682,0.2681,0.2681,0,0,0.2648,0.2657,0.266,0.2677,0.2685,0.2699,0.2692,0.2707,0.2718,0.2697,0.2708,0.2712,0.2708,0.2723,0.2729,0.2712,0.2764,0.2734,0.2738,0.274,0.2771,0.278,0.2788,0.2684,0.2683,0.2683,0,0,0.2653,0.2664,0.2671,0.2685,0.2704,0.2711,0.2719,0.2731,0.2736,0.2751,0.2746,0.2762,0.2759,0.2766,0.2767,0.2809,0.2799,0.281,0.2832,0.2864,0.2872,0.2878,0.2909,0.2918,0.2805,0.2805,0.2805,0,0.2653,0.2663,0.2677,0.2691,0.2702,0.2719,0.2732,0.2745,0.2757,0.2769,0.2759,0.2787,0.2782,0.281,0.2824,0.2821,0.2836,0.2802,0.2871,0.2877,0.2884,0.2913,0.2923,0.2807,0.2807,0.2807,0.2807,0,0.2661,0.2673,0.2683,0.2704,0.2721,0.2738,0.2761,0.278,0.2789,0.28,0.2835,0.2838,0.2853,0.2859,0.285,0.2897,0.2893,0.2879,0.285,0.2895,0.2924,0.2933,0.281,0.281,0.2809,0.2808,0,0,0.2648,0.268,0.2682,0.269,0.273,0.2739,0.2775,0.2807,0.2829,0.2849,0.2878,0.2901,0.291,0.2914,0.2915,0.2938,0.2998,0.2927,0.2927,0.2951,0.3072,0.3071,0.3081,0.2994,0.2995,0.2997,0.3077,0,0.2649,0.2666,0.2689,0.2708,0.2719,0.2755,0.2785,0.2819,0.2849,0.2883,0.291,0.2937,0.2929,0.294,0.2968,0.2994,0.3023,0.2978,0.3029,0.3031,0.3019,0.3092,0.2814,0.2862,0.3086,0.3087,0.3088,0,0.2644,0.2657,0.2671,0.2705,0.2715,0.2731,0.2782,0.2813,0.2878,0.2904,0.2948,0.2971,0.3023,0.3002,0.3077,0.3049,0.3067,0.3082,0.3085,0.3076,0.3047,0.2852,0.2871,0.3104,0.3103,0.3101,0.31,0,0.2609,0.2642,0.2648,0.266,0.2704,0.2721,0.2751,0.2815,0.2849,0.2922,0.2958,0.3018,0.3056,0.3093,0.3139,0.311,0.322,0.318,0.3198,0.3197,0.2968,0.2945,0.3234,0.3234,0.3233,0.3233,0.3233,0,0.2592,0.2596,0.2628,0.2628,0.2644,0.2691,0.2722,0.277,0.2844,0.2889,0.2963,0.3015,0.3081,0.3151,0.317,0.3232,0.3251,0.3225,0.3227,0.2976,0.2954,0.3161,0.3152,0.3236,0.3235,0.3235,0.3234,0,0.2546,0.2569,0.2574,0.2612,0.2623,0.2633,0.2695,0.2723,0.2809,0.2874,0.2902,0.3029,0.313,0.3201,0.3278,0.3279,0.3327,0.3338,0.3049,0.3017,0.3271,0.3263,0.3363,0.3363,0.3364,0.3365,0.3365,0,0.2521,0.2519,0.2545,0.2547,0.256,0.2585,0.2607,0.2689,0.2732,0.2876,0.2909,0.3045,0.313,0.3275,0.3279,0.3333,0.3376,0.3119,0.302,0.3297,0.3289,0.3279,0.327,0.2723,0.2718,0.2714,0.2711,0,0.2476,0.2486,0.2491,0.2495,0.2504,0.2515,0.2559,0.2587,0.2694,0.2762,0.2878,0.2963,0.3109,0.3059,0.3153,0.3137,0.309,0.3046,0.3401,0.2755,0.2706,0.2695,0.2704,0.2676,0.2679,0.2682,0.2684,0.2685,0.2444,0.2433,0.2441,0.2436,0.2442,0.2438,0.2424,0.2479,0.2528,0.2591,0.2746,0.2781,0.285,0.2863,0.2802,0.2757,0.2975,0.2835,0.284,0.2852,0.2786,0.2743,0.2707,0.271,0.2713,0.2716,0.2718,0,0.2391,0.239,0.2384,0.236,0.232,0.2362,0.2382,0.2339,0.2344,0.2432,0.2492,0.2348,0.2344,0.2412,0.2294,0.2339,0.2241,0.2244,0.2071,0.2111,0.2146,0.2035,0.1761,0.1758,0.1755,0.1752,0,0,0.2367,0.2332,0.2319,0.2235,0.2223,0.2138,0.2129,0.209,0.2112,0.2077,0.207,0.2225,0.2359,0.2016,0.1994,0.1856,0.1954,0.178,0.2556,0.2394,0.2423,0.2511,0.2392,0,0,0,0,0]},{"header":{"parameterUnit":"m.s-1","parameterCategory":2,"la1":30.2991,"la2":30.254,"lo1":-89.0895,"lo2":-89.0444,"dy":0.0017,"dx":0.0017,"nx":28,"ny":28,"refTime":"2025-04-01T09:00:00:Z","depth":"2","parameterNumber":3,"parameterNumberName":"V-component_of_CURRENTS"},"data":[0,0,0,0,0,0,0,0,0,0,0,0,0,0,0,0,0,0,0,0,0,0,0,0,0,0,0,0,0,0,0,0,0,0,0,0,0,0,0,0,0,0,0,0,0,0,0,0,0,0,0,0,0,0,0,0,0,0,0.0092,0.0092,0,0.0021,0.002,0.0019,-0.0024,-0.0024,-0.0024,-0.0024,-0.0116,-0.0118,-0.0121,0,0,0,0,0,0,0,0,0,0,0,0,0,0.0146,0.0146,0.0092,0.0092,0.0091,0.0021,0.002,0.0019,-0.0024,-0.0024,-0.0024,-0.0024,-0.0115,-0.0118,-0.0121,0,0,0,0,0,0,0,0,0,0,0,0,0,0.0103,0.0146,0.0092,0.0062,0.0059,0.0022,0.002,0.0019,-0.0024,-0.0024,-0.0024,-0.0025,-0.0114,-0.0118,-0.0121,-0.0141,0,0,-0.0132,-0.0134,0,0,0,0,0,0,0,0,0.0105,0.01,0.0067,0.0064,0.006,0.0009,0.0006,-0.0035,-0.0024,0.0006,-0.0024,-0.0025,-0.0075,-0.0082,-0.0097,-0.0145,-0.0149,-0.0132,-0.0135,-0.0136,-0.0137,0,0,0,0,0,0,0,0.0108,0.0103,0.0063,0.0067,0.0062,0.0037,0.0031,-0.0002,-0.0035,0.0003,0.0,-0.0005,-0.0077,-0.0093,-0.0099,-0.015,-0.0132,-0.0136,-0.0138,-0.0139,-0.0212,-0.0211,0,0,0,0,0,0,0.0123,0.0106,0.0065,0.0061,0.0085,0.0036,0.0029,0.0024,-0.0034,-0.0043,-0.0005,-0.0007,-0.0087,-0.0095,-0.0103,-0.0109,-0.0136,-0.0139,-0.0142,-0.0212,-0.0212,-0.0211,0,0,0,0,0,0,0.0124,0.012,0.0068,0.0083,0.0075,0.0036,0.003,0.0023,0.0011,-0.004,-0.0049,-0.0009,-0.0088,-0.0098,-0.0124,-0.0114,-0.0141,-0.0144,-0.0212,-0.0212,-0.0212,-0.0136,0,0,0,0,0,0,0.0126,0.012,0.0123,0.0084,0.0075,0.0055,0.003,0.0022,0.0008,0.0005,-0.0046,-0.0055,-0.0089,-0.0119,-0.0128,-0.0119,-0.0147,-0.0212,-0.0212,-0.0212,-0.0138,-0.0133,-0.0128,0,0,0,0,0,0.0128,0.0134,0.0123,0.0118,0.0079,0.0055,0.0048,0.0018,0.0008,0.0007,-0.0026,-0.0053,-0.0123,-0.0121,-0.0132,-0.0124,-0.0213,-0.0212,-0.0212,-0.0141,-0.0134,-0.0128,0,0,0,0,0,0,0.016,0.0129,0.0117,0.0114,0.009,0.0049,0.0046,0.0025,-0.0003,-0.0003,-0.0052,-0.0063,-0.0083,-0.0115,-0.0112,-0.0145,-0.0172,-0.0174,-0.0114,-0.0108,-0.0103,-0.0082,-0.015,0,0,0,0,0,0.0168,0.0166,0.0131,0.0131,0.0122,0.0086,0.0073,0.0054,0.0024,0.0012,-0.0023,-0.006,-0.0091,-0.0107,-0.0141,-0.0158,-0.0187,-0.0161,-0.0156,-0.0151,-0.0142,-0.0178,-0.0175,-0.021,-0.021,-0.021,0,0,0.018,0.0165,0.0162,0.0137,0.0117,0.0114,0.0078,0.0066,0.0065,0.0006,-0.0005,-0.0043,-0.0092,-0.011,-0.0122,-0.0135,-0.0156,-0.0151,-0.0146,-0.014,-0.0178,-0.0174,-0.0171,-0.021,-0.021,-0.021,0,0,0.0208,0.019,0.0199,0.0184,0.0162,0.014,0.0141,0.0105,0.0091,0.0071,0.0032,0.0004,-0.0047,-0.0075,-0.0097,-0.0084,-0.0128,-0.0098,-0.0054,-0.0089,-0.0086,-0.0084,-0.011,-0.0111,-0.0094,-0.0094,-0.0094,0,0.0226,0.023,0.0198,0.0204,0.0201,0.0158,0.017,0.0147,0.0108,0.0102,0.0079,0.0012,-0.0028,-0.0048,-0.0044,-0.0071,-0.0097,-0.0071,-0.008,-0.0079,-0.0078,-0.0106,-0.0108,-0.009,-0.0091,-0.0091,-0.0092,0,0.0258,0.0262,0.0268,0.0263,0.0255,0.0257,0.0227,0.0218,0.0194,0.0168,0.0142,0.0083,0.0046,0.0026,-0.0007,-0.0018,-0.004,-0.0069,-0.0091,-0.007,-0.0101,-0.0104,-0.0085,-0.0086,-0.0088,-0.0088,0,0,0.0298,0.0292,0.0295,0.0308,0.0288,0.0288,0.029,0.0278,0.0286,0.0236,0.0237,0.0176,0.0142,0.0115,0.0068,0.0035,0.0018,-0.0007,-0.0011,-0.0023,-0.0053,-0.0058,-0.0063,-0.0013,-0.0014,-0.0014,-0.0075,0,0.0335,0.0364,0.0349,0.0381,0.0395,0.0366,0.0375,0.0359,0.0332,0.0321,0.0257,0.0235,0.0176,0.0162,0.012,0.0045,0.0011,0.0037,-0.0081,-0.0084,-0.0083,-0.0066,-0.0065,-0.0119,-0.0079,-0.0079,-0.008,0,0.0376,0.039,0.0426,0.0448,0.0453,0.0462,0.0474,0.0476,0.0446,0.0423,0.0384,0.0334,0.0284,0.0227,0.0114,0.0133,0.0051,-0.0014,-0.0019,-0.0051,-0.0095,-0.0137,-0.0127,-0.0086,-0.0085,-0.0085,-0.0084,0,0.0425,0.045,0.0483,0.0487,0.0498,0.0513,0.052,0.0507,0.0526,0.0488,0.0492,0.0413,0.0385,0.0271,0.0143,0.0127,0.0016,-0.0027,-0.011,-0.0111,-0.0147,-0.015,-0.0107,-0.0107,-0.0107,-0.0107,-0.0107,0,0.0473,0.0501,0.0508,0.0525,0.0575,0.0564,0.0608,0.0601,0.0605,0.0637,0.055,0.0558,0.0395,0.0314,0.0177,0.0035,0.004,-0.0093,-0.0125,-0.012,-0.012,-0.0125,-0.0126,-0.0109,-0.0109,-0.0108,-0.0108,0,0.0518,0.052,0.0563,0.0584,0.0597,0.0632,0.0676,0.0711,0.0699,0.0737,0.0734,0.0673,0.0572,0.0406,0.0229,0.0095,-0.0052,-0.0108,-0.0083,-0.011,-0.0167,-0.0164,-0.0207,-0.0208,-0.0208,-0.0209,-0.0209,0,0.0544,0.0568,0.0609,0.0641,0.0651,0.0698,0.0739,0.0753,0.0798,0.0815,0.0849,0.0775,0.0744,0.0489,0.0236,0.0002,-0.0033,-0.0159,-0.0193,-0.015,-0.0176,-0.0172,-0.0168,-0.0214,-0.0214,-0.0215,-0.0215,0,0.0595,0.0604,0.0637,0.0702,0.0749,0.0808,0.0868,0.0923,0.095,0.099,0.1042,0.1026,0.0791,0.0566,0.024,0.0067,-0.0122,-0.0172,-0.0138,-0.018,-0.0159,-0.0184,-0.0179,-0.0218,-0.0217,-0.0217,-0.0217,-0.0217,0.0633,0.0665,0.0706,0.077,0.083,0.091,0.0972,0.1031,0.112,0.1164,0.117,0.1124,0.0882,0.0463,0.0187,-0.0129,-0.0113,-0.0242,-0.024,-0.0238,-0.0219,-0.0199,-0.0262,-0.0262,-0.0262,-0.0262,-0.0262,0,0.0673,0.0713,0.0774,0.0846,0.0904,0.094,0.1055,0.1086,0.118,0.1225,0.1251,0.1004,0.0777,0.0489,0.0033,-0.0219,-0.0258,-0.0315,-0.0303,-0.0298,-0.0294,-0.0278,-0.0337,-0.0338,-0.0339,-0.0339,0,0,0.0696,0.075,0.0775,0.0879,0.0944,0.1011,0.1081,0.1129,0.1167,0.1184,0.117,0.1149,0.0849,0.0508,0.0167,-0.0085,-0.0146,-0.0153,-0.0069,-0.0011,-0.0005,-0.0231,-0.0197,0,0,0,0,0]}],[{"header":{"parameterUnit":"m.s-1","parameterCategory":2,"la1":30.2991,"la2":30.254,"lo1":-89.0895,"lo2":-89.0444,"dy":0.0017,"dx":0.0017,"nx":28,"ny":28,"refTime":"2025-04-01T09:00:00:Z","depth":"4","parameterNumber":2,"parameterNumberName":"U-component_of_CURRENTS"},"data":[0,0,0,0,0,0,0,0,0,0,0,0,0,0,0,0,0,0,0,0,0,0,0,0,0,0,0,0,0,0,0,0,0,0,0,0,0,0,0,0,0,0,0,0,0,0,0,0,0,0,0,0,0,0,0,0,0,0,0.1701,0.1702,0,0.1759,0.176,0.1761,0.181,0.1811,0.1812,0.1812,0.1882,0.1883,0.1884,0,0,0,0,0,0,0,0,0,0,0,0,0,0.1619,0.1621,0.1701,0.1702,0.1703,0.1759,0.176,0.1761,0.181,0.1811,0.1812,0.1813,0.1882,0.1883,0.1885,0,0,0,0,0,0,0,0,0,0,0,0,0,0.1663,0.1621,0.1701,0.1735,0.1739,0.1759,0.176,0.1761,0.181,0.1811,0.1812,0.1813,0.1881,0.1883,0.1885,0.1876,0,0,0.189,0.1891,0,0,0,0,0,0,0,0,0.166,0.1666,0.1729,0.1733,0.1737,0.178,0.1757,0.18,0.181,0.1782,0.1812,0.1813,0.1849,0.1854,0.186,0.1879,0.1882,0.1891,0.1892,0.1892,0.1893,0,0,0,0,0,0,0,0.1657,0.1663,0.1723,0.173,0.1735,0.1743,0.1751,0.1765,0.1808,0.1784,0.1788,0.1797,0.1851,0.1858,0.1862,0.1883,0.189,0.1892,0.1893,0.1894,0.2012,0.2014,0,0,0,0,0,0,0.1652,0.166,0.1721,0.1725,0.1702,0.1744,0.1752,0.1764,0.1808,0.1816,0.1796,0.1799,0.1855,0.186,0.1865,0.1956,0.1892,0.1894,0.1895,0.201,0.2013,0.2015,0,0,0,0,0,0,0.165,0.1657,0.1719,0.1695,0.1703,0.1745,0.1757,0.1765,0.1809,0.1817,0.1825,0.1837,0.1856,0.1862,0.1915,0.1955,0.1895,0.1897,0.2008,0.2011,0.2014,0.2074,0,0,0,0,0,0,0.1648,0.1656,0.168,0.1695,0.1705,0.1755,0.1757,0.1765,0.1811,0.1816,0.1854,0.1859,0.1857,0.1912,0.1917,0.1957,0.1898,0.2005,0.2009,0.2013,0.2069,0.2079,0.2087,0,0,0,0,0,0.1645,0.1667,0.1681,0.169,0.1731,0.1756,0.1763,0.1794,0.1812,0.1837,0.1868,0.186,0.194,0.1915,0.192,0.1961,0.2003,0.2008,0.2013,0.2066,0.2077,0.2086,0,0,0,0,0,0,0.1645,0.1675,0.169,0.1722,0.175,0.1766,0.1797,0.1814,0.1857,0.1876,0.1882,0.189,0.1953,0.195,0.1923,0.2008,0.1972,0.1978,0.2011,0.2021,0.203,0.2027,0.19,0,0,0,0,0,0.1655,0.1685,0.1707,0.1739,0.1756,0.1784,0.1806,0.1827,0.1857,0.188,0.1905,0.1937,0.1968,0.199,0.2014,0.2057,0.2056,0.2089,0.2097,0.2105,0.2107,0.2142,0.2154,0.203,0.203,0.203,0,0,0.1664,0.1686,0.1704,0.1742,0.1769,0.1796,0.1801,0.1846,0.1879,0.1879,0.1946,0.1971,0.1988,0.204,0.2068,0.2047,0.2142,0.211,0.2116,0.2115,0.2148,0.216,0.2171,0.2033,0.2032,0.2032,0,0,0.1683,0.1719,0.1745,0.1772,0.1819,0.1834,0.1855,0.1894,0.1928,0.1983,0.1998,0.2048,0.2093,0.2113,0.2127,0.2197,0.2188,0.2215,0.2254,0.2288,0.2298,0.2307,0.2327,0.2337,0.2216,0.2217,0.2217,0,0.1696,0.173,0.1758,0.1788,0.1817,0.1854,0.1887,0.1921,0.1976,0.2008,0.2018,0.2106,0.2124,0.2182,0.2212,0.2216,0.2231,0.221,0.2298,0.2307,0.2315,0.2333,0.2344,0.222,0.222,0.2219,0.2219,0,0.172,0.1762,0.1784,0.1833,0.1867,0.1906,0.1948,0.1998,0.2043,0.2074,0.2157,0.2187,0.2236,0.2257,0.2257,0.233,0.2321,0.2306,0.2267,0.2331,0.2346,0.2356,0.2225,0.2224,0.2223,0.2222,0,0,0.1706,0.1785,0.1796,0.1827,0.1898,0.1921,0.199,0.205,0.2098,0.2164,0.2226,0.2291,0.2318,0.2335,0.2352,0.2384,0.2457,0.2377,0.2377,0.2388,0.2534,0.2382,0.2377,0.2462,0.2464,0.2466,0.2524,0,0.172,0.1777,0.1819,0.1881,0.1912,0.1973,0.2028,0.2093,0.2152,0.2221,0.2275,0.2341,0.2344,0.2382,0.2419,0.2451,0.2485,0.2442,0.2478,0.2479,0.2328,0.2384,0.2472,0.253,0.2533,0.2534,0.2535,0,0.1722,0.1763,0.1826,0.1905,0.1927,0.1974,0.2068,0.2124,0.2223,0.2273,0.2349,0.2392,0.2471,0.2456,0.2543,0.252,0.2537,0.255,0.2552,0.2392,0.2343,0.2454,0.2552,0.2551,0.255,0.2548,0.2547,0,0.1678,0.1764,0.1816,0.1845,0.1939,0.199,0.2049,0.2147,0.2202,0.2316,0.2367,0.2457,0.2516,0.2559,0.2601,0.2585,0.2677,0.2649,0.2526,0.2515,0.2607,0.2597,0.2702,0.2702,0.2702,0.2702,0.2702,0,0.1655,0.17,0.1805,0.1831,0.1897,0.1977,0.2057,0.2129,0.2236,0.2294,0.2397,0.2446,0.2549,0.2611,0.2629,0.2607,0.2703,0.2538,0.2521,0.2633,0.2625,0.2614,0.2603,0.2704,0.2704,0.2703,0.2703,0,0.1592,0.1665,0.1727,0.184,0.1878,0.1929,0.2054,0.2103,0.222,0.2299,0.2342,0.2469,0.2541,0.2617,0.269,0.2625,0.2627,0.2595,0.2719,0.2708,0.2434,0.2426,0.2449,0.2444,0.244,0.2436,0.2433,0,0.156,0.159,0.1717,0.1756,0.1814,0.1901,0.1956,0.2082,0.2131,0.2285,0.2308,0.2431,0.2496,0.2476,0.2569,0.2589,0.2563,0.2542,0.2472,0.2427,0.241,0.2408,0.2406,0.2427,0.2426,0.2425,0.2424,0,0.1498,0.1563,0.1616,0.1696,0.1763,0.182,0.1909,0.1927,0.2061,0.2186,0.2213,0.2248,0.2323,0.2373,0.2413,0.2422,0.2539,0.2498,0.2505,0.244,0.2401,0.2387,0.239,0.2409,0.2411,0.2413,0.2414,0,0.1459,0.148,0.1561,0.1614,0.1693,0.1711,0.1768,0.1816,0.1875,0.2036,0.2041,0.2168,0.2291,0.2288,0.2324,0.2324,0.2284,0.2199,0.2222,0.2239,0.2144,0.2062,0.1955,0,0,0,0,0,0.1407,0.142,0.1469,0.1517,0.1588,0.1629,0.1723,0.1781,0.1904,0.187,0.1946,0.2001,0.2041,0.2116,0.2075,0.2246,0.2305,0.2189,0.2222,0.233,0.2347,0.2255,0,0,0,0,0,0,0.1372,0.1421,0.1433,0.1421,0.1434,0.1491,0.1543,0.1626,0.1613,0.1746,0.1783,0.1885,0.1966,0.2048,0.204,0.2062,0.2041,0.2276,0.2271,0.2321,0.2336,0.2349,0.2261,0,0,0,0,0]},{"header":{"parameterUnit":"m.s-1","parameterCategory":2,"la1":30.2991,"la2":30.254,"lo1":-89.0895,"lo2":-89.0444,"dy":0.0017,"dx":0.0017,"nx":28,"ny":28,"refTime":"2025-04-01T09:00:00:Z","depth":"4","parameterNumber":3,"parameterNumberName":"V-component_of_CURRENTS"},"data":[0,0,0,0,0,0,0,0,0,0,0,0,0,0,0,0,0,0,0,0,0,0,0,0,0,0,0,0,0,0,0,0,0,0,0,0,0,0,0,0,0,0,0,0,0,0,0,0,0,0,0,0,0,0,0,0,0,0,0.0003,0.0003,0,-0.0042,-0.0042,-0.0043,-0.008,-0.008,-0.008,-0.0081,-0.0147,-0.0148,-0.015,0,0,0,0,0,0,0,0,0,0,0,0,0,0.0029,0.0029,0.0003,0.0003,0.0002,-0.0042,-0.0042,-0.0043,-0.008,-0.008,-0.008,-0.0081,-0.0146,-0.0148,-0.015,0,0,0,0,0,0,0,0,0,0,0,0,0,0.0004,0.0029,0.0003,-0.0021,-0.0023,-0.0041,-0.0042,-0.0043,-0.008,-0.008,-0.008,-0.0081,-0.0146,-0.0148,-0.015,-0.0156,0,0,-0.0157,-0.0158,0,0,0,0,0,0,0,0,0.0005,0.0002,-0.0017,-0.0019,-0.0022,-0.0055,-0.0057,-0.0082,-0.0079,-0.0059,-0.0081,-0.0081,-0.0117,-0.0122,-0.013,-0.0159,-0.0162,-0.0157,-0.0159,-0.016,-0.016,0,0,0,0,0,0,0,0.0007,0.0004,-0.0016,-0.0017,-0.002,-0.0038,-0.0042,-0.0062,-0.0086,-0.0061,-0.0064,-0.0067,-0.0119,-0.0128,-0.0132,-0.0162,-0.0157,-0.0159,-0.0161,-0.0161,-0.0205,-0.0204,0,0,0,0,0,0,0.0017,0.0006,-0.0014,-0.0017,-0.0008,-0.0038,-0.0043,-0.0045,-0.0086,-0.0092,-0.0066,-0.0068,-0.0124,-0.013,-0.0135,-0.0138,-0.016,-0.0162,-0.0163,-0.0205,-0.0204,-0.0204,0,0,0,0,0,0,0.0017,0.0015,-0.0013,-0.0006,-0.0011,-0.0038,-0.004,-0.0045,-0.0054,-0.0089,-0.0096,-0.0069,-0.0125,-0.0132,-0.0148,-0.0141,-0.0163,-0.0165,-0.0205,-0.0205,-0.0204,-0.0149,0,0,0,0,0,0,0.0018,0.0016,0.0019,-0.0005,-0.001,-0.0019,-0.0039,-0.0046,-0.0055,-0.0058,-0.0094,-0.0101,-0.0125,-0.0145,-0.0151,-0.0145,-0.0167,-0.0205,-0.0205,-0.0204,-0.0151,-0.0147,-0.0143,0,0,0,0,0,0.0019,0.0027,0.002,0.0017,-0.0005,-0.0018,-0.0023,-0.0045,-0.0054,-0.0055,-0.0079,-0.01,-0.0147,-0.0146,-0.0153,-0.0148,-0.0205,-0.0205,-0.0204,-0.0153,-0.0148,-0.0143,0,0,0,0,0,0,0.004,0.0023,0.0015,0.0017,0.0003,-0.0024,-0.0025,-0.004,-0.0059,-0.0061,-0.0096,-0.0104,-0.0117,-0.014,-0.0138,-0.016,-0.018,-0.0181,-0.0139,-0.0134,-0.013,-0.0116,-0.0168,0,0,0,0,0,0.0047,0.0049,0.0028,0.0031,0.0026,0.0002,-0.0005,-0.0019,-0.0039,-0.0048,-0.0074,-0.01,-0.0121,-0.0132,-0.0155,-0.0164,-0.0189,-0.0167,-0.0163,-0.0159,-0.0153,-0.0185,-0.0183,-0.0203,-0.0203,-0.0203,0,0,0.0056,0.0048,0.0048,0.0036,0.0023,0.0023,-0.0004,-0.001,-0.001,-0.0052,-0.006,-0.0087,-0.012,-0.0132,-0.014,-0.0149,-0.0166,-0.0159,-0.0155,-0.0151,-0.0184,-0.0183,-0.0181,-0.0202,-0.0202,-0.0203,0,0,0.0076,0.0068,0.0075,0.0067,0.0054,0.0041,0.0042,0.0019,0.0009,-0.0002,-0.0032,-0.0052,-0.0084,-0.0106,-0.0121,-0.0109,-0.0144,-0.0118,-0.0086,-0.0117,-0.0116,-0.0115,-0.0138,-0.014,-0.0116,-0.0115,-0.0115,0,0.0087,0.0093,0.0075,0.008,0.008,0.0053,0.0063,0.0049,0.0024,0.002,0.0003,-0.0042,-0.0071,-0.0085,-0.0082,-0.0099,-0.0121,-0.01,-0.0111,-0.0111,-0.0111,-0.0135,-0.0138,-0.0113,-0.0113,-0.0113,-0.0114,0,0.0108,0.0115,0.012,0.0119,0.0117,0.0121,0.0104,0.01,0.0085,0.0068,0.005,0.0009,-0.0016,-0.0031,-0.0053,-0.0064,-0.0081,-0.0102,-0.012,-0.0105,-0.0132,-0.0136,-0.0109,-0.011,-0.0111,-0.0111,0,0,0.0127,0.0134,0.0136,0.0147,0.014,0.0142,0.0147,0.0143,0.0151,0.0116,0.0119,0.0076,0.0052,0.0033,-0.0,-0.0028,-0.0047,-0.0059,-0.0062,-0.0076,-0.011,-0.0113,-0.0118,-0.0071,-0.0071,-0.0072,-0.0127,0,0.0149,0.0172,0.0169,0.0195,0.0206,0.0194,0.0205,0.0198,0.0184,0.0179,0.0133,0.0121,0.0077,0.0069,0.0034,-0.0024,-0.0054,-0.003,-0.0127,-0.013,-0.013,-0.0121,-0.0073,-0.0129,-0.013,-0.0131,-0.0131,0,0.0169,0.0184,0.0213,0.024,0.0245,0.0257,0.0275,0.0281,0.0266,0.0253,0.0227,0.0193,0.0155,0.0113,0.002,0.0038,-0.0028,-0.008,-0.0084,-0.0108,-0.014,-0.0151,-0.0138,-0.0138,-0.0137,-0.0137,-0.0136,0,0.019,0.0217,0.0245,0.0251,0.0273,0.029,0.0303,0.0304,0.0323,0.0302,0.0309,0.025,0.023,0.0138,0.0038,0.0028,-0.0069,-0.0098,-0.0166,-0.0167,-0.0172,-0.0173,-0.0168,-0.0168,-0.0168,-0.0168,-0.0168,0,0.0211,0.0234,0.0259,0.0273,0.0318,0.0322,0.0365,0.0366,0.0381,0.0408,0.0352,0.0354,0.0236,0.0169,0.006,-0.0055,-0.0054,-0.0156,-0.0181,-0.0147,-0.0145,-0.0175,-0.0175,-0.017,-0.017,-0.0169,-0.0169,0,0.0224,0.0238,0.0276,0.0311,0.0328,0.0359,0.0415,0.0445,0.045,0.0483,0.0484,0.044,0.0353,0.0229,0.0085,-0.0012,-0.0133,-0.0178,-0.0119,-0.0141,-0.0217,-0.0214,-0.0258,-0.0258,-0.0259,-0.0259,-0.0259,0,0.0231,0.0251,0.0305,0.0336,0.0354,0.0403,0.0443,0.0474,0.0509,0.0533,0.0552,0.0497,0.0444,0.0253,0.0106,-0.0096,-0.0134,-0.0201,-0.0224,-0.0206,-0.0226,-0.0222,-0.0218,-0.026,-0.026,-0.0261,-0.0261,0,0.0244,0.0265,0.0296,0.0361,0.041,0.0466,0.0524,0.056,0.0597,0.0609,0.0615,0.0523,0.0426,0.0268,0.0117,-0.0035,-0.016,-0.0207,-0.0208,-0.023,-0.021,-0.0228,-0.0224,-0.0262,-0.0262,-0.0262,-0.0262,0,0.0256,0.0279,0.0324,0.0381,0.0445,0.0505,0.0539,0.0587,0.0627,0.0657,0.0659,0.0555,0.0504,0.0299,0.0157,0.0014,-0.0037,-0.0104,-0.0112,-0.0112,-0.0061,-0.0013,-0.0021,0,0,0,0,0,0.0262,0.0286,0.034,0.04,0.0467,0.0502,0.0582,0.0612,0.0655,0.0669,0.0669,0.058,0.0389,0.0314,0.0171,0.012,-0.0081,-0.0057,-0.0166,-0.0271,-0.027,-0.0236,0,0,0,0,0,0,0.0263,0.0308,0.0333,0.0404,0.0446,0.0518,0.0569,0.0603,0.0614,0.0642,0.0554,0.052,0.0342,0.0469,0.016,0.0118,0.0023,-0.0139,-0.0143,-0.0273,-0.0271,-0.0269,-0.0234,0,0,0,0,0]}]]